This is the latest recevied weather packets stored in our database for station/object KN6ZYR. If no packets are shown the sender has not sent any weather packets the latest 10 day(s).
| Time | Temp. | Humidity | Pressure | Rain* | Wind** | Luminosity | Snow |
|---|---|---|---|---|---|---|---|
| 1778005956 | 13.33° C | 56% | 1017.7 hPa | 0 mm | - | 445 W/m² | - |
| 1778005652 | 13.89° C | 55% | 1017.9 hPa | 0 mm | - | 336 W/m² | - |
| 1778005349 | 13.33° C | 62% | 1017.6 hPa | 0 mm | - | 333 W/m² | - |
| 1778005045 | 13.89° C | 59% | 1017.6 hPa | 0 mm | - | 982 W/m² | - |
| 1778004743 | 13.89° C | 60% | 1017.4 hPa | 0 mm | - | 1019 W/m² | - |
| 1778004440 | 13.33° C | 60% | 1017.5 hPa | 0 mm | - | 445 W/m² | - |
| 1778004136 | 13.89° C | 57% | 1017.5 hPa | 0 mm | - | 342 W/m² | - |
| 1778003832 | 13.89° C | 60% | 1017.3 hPa | 0 mm | - | 1081 W/m² | - |
| 1778003529 | 13.33° C | 57% | 1017.3 hPa | 0 mm | - | 1099 W/m² | - |
| 1778003226 | 13.33° C | 55% | 1017.1 hPa | 0 mm | - | 656 W/m² | - |
| 1778002922 | 12.22° C | 58% | 1017.3 hPa | 0 mm | - | 905 W/m² | - |
| 1778002619 | 12.78° C | 61% | 1017.1 hPa | 0 mm | - | 666 W/m² | - |
| 1778002315 | 12.22° C | 64% | 1017.1 hPa | 0 mm | - | 1227 W/m² | - |
| 1778002013 | 12.22° C | 63% | 1017.2 hPa | 0 mm | - | 405 W/m² | - |
| 1778001709 | 11.67° C | 63% | 1017.3 hPa | 0 mm | - | 822 W/m² | - |
| 1778001409 | 12.22° C | 65% | 1017.2 hPa | 0 mm | - | 401 W/m² | - |
| 1778001107 | 12.78° C | 64% | 1017.1 hPa | 0 mm | - | 741 W/m² | - |
| 1778000804 | 12.22° C | 65% | 1017.1 hPa | 0 mm | - | 1021 W/m² | - |
| 1778000501 | 11.67° C | 63% | 1017.2 hPa | 0 mm | - | 624 W/m² | - |
| 1778000201 | 11.11° C | 62% | 1017.1 hPa | 0 mm | - | 377 W/m² | - |
| 1777999897 | 10.56° C | 65% | 1017 hPa | 0 mm | - | 297 W/m² | - |
| 1777999592 | 10.56° C | 68% | 1016.8 hPa | 0 mm | - | 210 W/m² | - |
| 1777999290 | 10.56° C | 71% | 1017 hPa | 0 mm | - | 171 W/m² | - |
| 1777998988 | 10.56° C | 71% | 1016.8 hPa | 0 mm | - | 158 W/m² | - |
| 1777998686 | 10° C | 70% | 1017 hPa | 0 mm | - | 150 W/m² | - |
* Rain latest hour (hover to see other rain measurements)
** Current wind speed in m/s (hover to see current wind gust speed)